Location: Newark
(12.6500°N, 8.0000°W)
Time: 10:26:37
(UTC+00:00)

Envisat - Visible Passes

Search period start: 19 March 2019 00:00
Search period end: 29 March 2019 00:00
Orbit: 764 x 766 km, 98.2° (Epoch: 19 March)

Date Brightness Start Highest point End Pass type
(mag) Time Alt. Az. Time Alt. Az. Time Alt. Az.
19 Mar 5.5 20:22:44 10° SSW 20:26:27 21° W 20:30:11 10° NW visible
20 Mar 3.6 19:44:45 10° S 19:49:44 58° WSW 19:54:42 10° NNW visible
21 Mar 3.2 19:08:11 10° SSE 19:13:04 50° ENE 19:17:57 10° N visible
22 Mar 5.0 20:10:57 10° SSW 20:15:14 28° W 20:19:32 10° NW visible
23 Mar 3.1 19:33:28 10° S 19:38:32 79° W 19:43:36 10° NNW visible
24 Mar 3.5 18:57:17 10° SE 19:01:54 37° ENE 19:06:32 10° N visible
24 Mar 6.0 20:38:23 10° SW 20:40:47 13° W 20:43:11 10° WNW visible
25 Mar 4.5 19:59:22 10° SSW 20:04:01 37° W 20:08:42 10° NNW visible
26 Mar 2.9 19:22:17 10° SSE 19:27:20 77° ENE 19:32:24 10° N visible
27 Mar 5.6 20:26:07 10° SW 20:29:34 18° W 20:33:00 10° NW visible
28 Mar 3.9 19:47:55 10° S 19:52:49 51° W 19:57:44 10° NNW visible
